| time (UTC) | temp C | wind direction | speed KPH | gust KPH | rain 1hr cm | rain 24hr cm | rain mn cm | humidity % | barometer mb |
| 20260508122310 | 16 | 180 | 1.6 | 16.1 | 0.00 | 0.00 | 0.00 | 50 | 1014.8 |
| 20260508120310 | 16 | 292 | 3.2 | 14.5 | 0.00 | 0.00 | 0.00 | 51 | 1014.9 |
| 20260508114310 | 16 | 292 | 1.6 | 12.9 | 0.00 | 0.00 | 0.00 | 56 | 1014.7 |
| 20260508112309 | 15 | 292 | 0.0 | 11.3 | 0.00 | 0.00 | 0.00 | 49 | 1014.7 |
| 20260508111309 | 15 | 180 | 4.8 | 17.7 | 0.00 | 0.00 | 0.00 | 51 | 1014.6 |
| 20260508110309 | 15 | 202 | 1.6 | 12.9 | 0.00 | 0.00 | 0.00 | 52 | 1014.8 |
| 20260508105309 | 15 | 270 | 4.8 | 16.1 | 0.00 | 0.00 | 0.00 | 51 | 1014.6 |
| 20260508104309 | 14 | 202 | 4.8 | 12.9 | 0.00 | 0.00 | 0.00 | 51 | 1014.6 |
| 20260508103309 | 16 | 292 | 3.2 | 14.5 | 0.00 | 0.00 | 0.00 | 52 | 1015.0 |
| 20260508101314 | 14 | 202 | 1.6 | 14.5 | 0.00 | 0.00 | 0.00 | 61 | 1014.6 |
| 20260508100313 | 14 | 270 | 3.2 | 12.9 | 0.00 | 0.00 | 0.00 | 56 | 1014.7 |
| 20260508095314 | 13 | 180 | 8.0 | 16.1 | 0.00 | 0.00 | 0.00 | 59 | 1014.5 |
| 20260508094314 | 13 | 180 | 3.2 | 12.9 | 0.00 | 0.00 | 0.00 | 60 | 1014.7 |
| 20260508092314 | 13 | 180 | 3.2 | 11.3 | 0.00 | 0.00 | 0.00 | 63 | 1014.7 |
| 20260508091314 | 13 | 202 | 8.0 | 14.5 | 0.00 | 0.00 | 0.00 | 62 | 1014.8 |
| 20260508090313 | 13 | 180 | 8.0 | 14.5 | 0.00 | 0.00 | 0.00 | 58 | 1015.1 |
| 20260508085313 | 13 | 180 | 4.8 | 14.5 | 0.00 | 0.00 | 0.00 | 66 | 1015.1 |
| 20260508083312 | 12 | 202 | 1.6 | 19.3 | 0.00 | 0.00 | 0.00 | 64 | 1015.0 |
| 20260508082312 | 12 | 180 | 4.8 | 12.9 | 0.00 | 0.00 | 0.00 | 67 | 1014.8 |
| 20260508081312 | 12 | 292 | 1.6 | 11.3 | 0.00 | 0.00 | 0.00 | 70 | 1014.8 |
| 20260508080312 | 12 | 180 | 3.2 | 11.3 | 0.00 | 0.00 | 0.00 | 68 | 1014.7 |
| 20260508073311 | 10 | 202 | 6.4 | 11.3 | 0.00 | 0.00 | 0.00 | 69 | 1014.4 |
| 20260508072312 | 10 | 180 | 4.8 | 11.3 | 0.00 | 0.00 | 0.00 | 72 | 1014.4 |
| 20260508071311 | 10 | 180 | 0.0 | 6.4 | 0.00 | 0.00 | 0.00 | 72 | 1014.4 |
| 20260508070311 | 9 | 0 | 0.0 | 6.4 | 0.00 | 0.00 | 0.00 | 73 | 1014.4 |
| 20260508065311 | 9 | 202 | 1.6 | 4.8 | 0.00 | 0.00 | 0.00 | 79 | 1014.4 |
| 20260508064311 | 8 | 202 | 4.8 | 9.7 | 0.00 | 0.00 | 0.00 | 82 | 1014.3 |
| 20260508063314 | 8 | 202 | 3.2 | 11.3 | 0.00 | 0.00 | 0.00 | 81 | 1014.0 |
| 20260508062311 | 8 | 202 | 4.8 | 8.0 | 0.00 | 0.00 | 0.00 | 78 | 1014.0 |
| 20260508061314 | 8 | 0 | 0.0 | 0.0 | 0.00 | 0.00 | 0.00 | 80 | 1013.9 |
| 20260508060310 | 8 | 0 | 0.0 | 0.0 | 0.00 | 0.00 | 0.00 | 82 | 1013.9 |
| 20260508055310 | 7 | 0 | 0.0 | 0.0 | 0.00 | 0.00 | 0.00 | 84 | 1013.9 |
| 20260508054310 | 7 | 0 | 0.0 | 0.0 | 0.00 | 0.00 | 0.00 | 89 | 1013.6 |
| 20260508053310 | 7 | 0 | 0.0 | 0.0 | 0.00 | 0.00 | 0.00 | 89 | 1013.8 |
| 20260508052310 | 6 | 0 | 0.0 | 0.0 | 0.00 | 0.00 | 0.00 | 94 | 1013.6 |
| 20260508051310 | 5 | 0 | 0.0 | 6.4 | 0.00 | 0.00 | 0.00 | 95 | 1013.3 |
| 20260508050309 | 4 | 0 | 0.0 | 4.8 | 0.00 | 0.00 | 0.00 | 95 | 1013.2 |
| 20260508045309 | 4 | 45 | 3.2 | 4.8 | 0.00 | 0.00 | 0.00 | 95 | 1013.2 |
| 20260508043309 | 3 | 0 | 0.0 | 0.0 | 0.00 | 0.00 | 0.00 | 95 | 1012.9 |
| 20260508042309 | 3 | 0 | 0.0 | 0.0 | 0.00 | 0.00 | 0.00 | 95 | 1012.9 |
| 20260508041314 | 3 | 0 | 0.0 | 0.0 | 0.00 | 0.00 | 0.00 | 95 | 1012.8 |
| 20260508040314 | 3 | 0 | 0.0 | 0.0 | 0.00 | 0.00 | 0.00 | 95 | 1012.5 |
| 20260508035314 | 3 | 0 | 0.0 | 0.0 | 0.00 | 0.00 | 0.00 | 95 | 1012.5 |
| 20260508034314 | 3 | 0 | 0.0 | 0.0 | 0.00 | 0.00 | 0.00 | 94 | 1012.5 |
| 20260508033314 | 3 | 22 | 4.8 | 6.4 | 0.00 | 0.00 | 0.00 | 94 | 1012.4 |
| 20260508032313 | 3 | 22 | 4.8 | 8.0 | 0.00 | 0.00 | 0.00 | 95 | 1012.6 |
| 20260508031314 | 3 | 22 | 6.4 | 9.7 | 0.00 | 0.00 | 0.00 | 95 | 1012.6 |
| 20260508030313 | 3 | 45 | 3.2 | 6.4 | 0.00 | 0.00 | 0.00 | 94 | 1012.6 |
| 20260508025313 | 3 | 45 | 3.2 | 6.4 | 0.00 | 0.00 | 0.00 | 94 | 1012.6 |
| 20260508024313 | 3 | 22 | 4.8 | 8.0 | 0.00 | 0.00 | 0.00 | 95 | 1012.6 |
| 20260508023313 | 3 | 22 | 4.8 | 6.4 | 0.00 | 0.00 | 0.00 | 95 | 1012.9 |
| 20260508022312 | 3 | 22 | 4.8 | 6.4 | 0.00 | 0.00 | 0.00 | 94 | 1012.7 |
| 20260508021312 | 3 | 22 | 4.8 | 8.0 | 0.00 | 0.00 | 0.00 | 95 | 1012.7 |
| 20260508020312 | 3 | 45 | 3.2 | 4.8 | 0.00 | 0.00 | 0.00 | 94 | 1012.7 |
| 20260508014312 | 3 | 45 | 3.2 | 4.8 | 0.00 | 0.00 | 0.00 | 94 | 1013.2 |
| 20260508012312 | 4 | 0 | 0.0 | 0.0 | 0.00 | 0.00 | 0.00 | 94 | 1013.1 |
| 20260508011312 | 4 | 0 | 0.0 | 0.0 | 0.00 | 0.00 | 0.00 | 94 | 1013.1 |
| 20260508005311 | 4 | 0 | 0.0 | 0.0 | 0.00 | 0.00 | 0.00 | 94 | 1013.2 |
| 20260508004311 | 4 | 0 | 0.0 | 0.0 | 0.00 | 0.00 | 0.00 | 93 | 1013.2 |
| 20260508003311 | 5 | 0 | 0.0 | 4.8 | 0.00 | 0.00 | 0.00 | 93 | 1013.7 |
| 20260508002311 | 5 | 45 | 4.8 | 6.4 | 0.00 | 0.00 | 0.00 | 93 | 1013.5 |
| 20260508001311 | 5 | 0 | 0.0 | 4.8 | 0.00 | 0.00 | 0.00 | 93 | 1013.4 |
| 20260508000312 | 5 | 22 | 4.8 | 6.4 | 0.00 | 0.00 | 0.00 | 93 | 1013.5 |
| 20260507235311 | 4 | 0 | 0.0 | 6.4 | 0.00 | 0.00 | 0.00 | 93 | 1013.5 |
| 20260507234310 | 4 | 45 | 4.8 | 6.4 | 0.00 | 0.00 | 0.00 | 93 | 1013.8 |
| 20260507233310 | 4 | 45 | 3.2 | 6.4 | 0.00 | 0.00 | 0.00 | 93 | 1013.8 |
| 20260507232310 | 4 | 45 | 1.6 | 4.8 | 0.00 | 0.00 | 0.00 | 92 | 1013.6 |
| 20260507231310 | 4 | 0 | 0.0 | 6.4 | 0.00 | 0.00 | 0.00 | 92 | 1013.6 |
| 20260507230310 | 4 | 0 | 0.0 | 3.2 | 0.00 | 0.00 | 0.00 | 92 | 1013.6 |
| 20260507225310 | 4 | 45 | 4.8 | 6.4 | 0.00 | 0.00 | 0.00 | 92 | 1013.6 |
| 20260507223309 | 4 | 22 | 3.2 | 8.0 | 0.00 | 0.00 | 0.00 | 92 | 1013.6 |
| 20260507222309 | 4 | 22 | 3.2 | 4.8 | 0.00 | 0.00 | 0.00 | 92 | 1013.6 |
| 20260507220309 | 4 | 0 | 0.0 | 0.0 | 0.00 | 0.00 | 0.00 | 91 | 1013.1 |
| 20260507215314 | 4 | 22 | 3.2 | 4.8 | 0.00 | 0.00 | 0.00 | 91 | 1013.1 |
| 20260507214314 | 5 | 45 | 3.2 | 4.8 | 0.00 | 0.00 | 0.00 | 91 | 1013.3 |
| 20260507213314 | 5 | 45 | 3.2 | 4.8 | 0.00 | 0.00 | 0.00 | 90 | 1013.1 |
| 20260507211313 | 5 | 360 | 4.8 | 6.4 | 0.00 | 0.00 | 0.00 | 89 | 1012.8 |
| 20260507210313 | 5 | 22 | 4.8 | 6.4 | 0.00 | 0.00 | 0.00 | 89 | 1012.7 |
| 20260507205313 | 5 | 22 | 4.8 | 8.0 | 0.00 | 0.00 | 0.00 | 89 | 1012.9 |
| 20260507202313 | 6 | 360 | 4.8 | 8.0 | 0.00 | 0.00 | 0.00 | 89 | 1012.3 |
| 20260507201313 | 5 | 0 | 0.0 | 6.4 | 0.00 | 0.00 | 0.00 | 90 | 1012.3 |
| 20260507200312 | 6 | 337 | 0.0 | 4.8 | 0.00 | 0.00 | 0.00 | 89 | 1012.3 |
| 20260507195312 | 6 | 0 | 0.0 | 6.4 | 0.00 | 0.00 | 0.00 | 89 | 1012.3 |
| 20260507194312 | 6 | 337 | 4.8 | 8.0 | 0.00 | 0.00 | 0.00 | 90 | 1011.9 |
| 20260507193312 | 6 | 45 | 3.2 | 4.8 | 0.00 | 0.00 | 0.00 | 89 | 1011.9 |
| 20260507191312 | 6 | 0 | 0.0 | 4.8 | 0.00 | 0.00 | 0.00 | 88 | 1011.8 |
| 20260507190312 | 7 | 67 | 1.6 | 4.8 | 0.00 | 0.15 | 0.00 | 85 | 1011.7 |
| 20260507185312 | 7 | 45 | 1.6 | 4.8 | 0.00 | 0.15 | 0.00 | 86 | 1011.9 |
| 20260507184312 | 7 | 0 | 0.0 | 9.7 | 0.00 | 0.15 | 0.00 | 84 | 1011.5 |
| 20260507183311 | 8 | 45 | 1.6 | 3.2 | 0.00 | 0.15 | 0.00 | 82 | 1011.5 |
| 20260507182314 | 8 | 337 | 4.8 | 8.0 | 0.00 | 0.15 | 0.00 | 82 | 1011.5 |
| 20260507181311 | 8 | 0 | 0.0 | 0.0 | 0.00 | 0.15 | 0.00 | 82 | 1011.2 |
| 20260507180311 | 8 | 247 | 0.0 | 6.4 | 0.00 | 0.79 | 0.00 | 82 | 1011.4 |
| 20260507175311 | 8 | 0 | 0.0 | 0.0 | 0.00 | 0.79 | 0.00 | 83 | 1011.4 |
| 20260507174311 | 8 | 0 | 0.0 | 0.0 | 0.00 | 0.79 | 0.00 | 82 | 1011.1 |
| 20260507173310 | 9 | 0 | 0.0 | 0.0 | 0.00 | 0.79 | 0.00 | 79 | 1011.1 |
| 20260507172311 | 10 | 202 | 0.0 | 3.2 | 0.00 | 0.79 | 0.00 | 78 | 1011.2 |
| 20260507171310 | 10 | 0 | 0.0 | 9.7 | 0.00 | 0.79 | 0.00 | 76 | 1011.0 |
| 20260507170310 | 10 | 180 | 0.0 | 3.2 | 0.00 | 0.89 | 0.00 | 75 | 1011.0 |
| 20260507165310 | 10 | 0 | 0.0 | 11.3 | 0.00 | 0.89 | 0.00 | 75 | 1011.0 |
| 20260507164310 | 11 | 292 | 3.2 | 9.7 | 0.00 | 0.89 | 0.00 | 75 | 1011.1 |
| 20260507163310 | 10 | 0 | 0.0 | 9.7 | 0.00 | 0.89 | 0.00 | 76 | 1010.8 |
| 20260507162309 | 10 | 270 | 0.0 | 6.4 | 0.00 | 0.89 | 0.00 | 79 | 1010.8 |
| 20260507160309 | 10 | 270 | 3.2 | 9.7 | 0.00 | 0.89 | 0.00 | 78 | 1010.7 |
| 20260507155309 | 10 | 315 | 1.6 | 6.4 | 0.00 | 0.89 | 0.00 | 77 | 1010.7 |
| 20260507154314 | 10 | 360 | 4.8 | 11.3 | 0.00 | 0.89 | 0.00 | 75 | 1010.6 |
| 20260507153314 | 10 | 292 | 3.2 | 16.1 | 0.00 | 0.89 | 0.00 | 75 | 1010.8 |
| 20260507152314 | 11 | 270 | 1.6 | 19.3 | 0.00 | 0.89 | 0.00 | 74 | 1010.8 |
| 20260507151314 | 11 | 292 | 8.0 | 14.5 | 0.00 | 0.89 | 0.00 | 76 | 1010.7 |
| 20260507144313 | 11 | 337 | 8.0 | 19.3 | 0.00 | 0.89 | 0.00 | 75 | 1010.7 |
| 20260507143313 | 11 | 292 | 1.6 | 17.7 | 0.00 | 0.89 | 0.00 | 74 | 1010.9 |
| 20260507142313 | 11 | 315 | 0.0 | 16.1 | 0.00 | 0.89 | 0.00 | 73 | 1010.7 |
| 20260507141313 | 11 | 292 | 6.4 | 22.5 | 0.00 | 0.89 | 0.00 | 74 | 1010.4 |
| 20260507140312 | 11 | 360 | 4.8 | 14.5 | 0.00 | 0.89 | 0.00 | 71 | 1010.3 |
| 20260507134312 | 11 | 270 | 0.0 | 6.4 | 0.00 | 0.89 | 0.00 | 72 | 1010.4 |
| 20260507133312 | 11 | 270 | 6.4 | 14.5 | 0.00 | 0.89 | 0.00 | 71 | 1010.4 |
| 20260507132312 | 12 | 157 | 0.0 | 12.9 | 0.00 | 0.89 | 0.00 | 69 | 1010.4 |
| 20260507131312 | 12 | 292 | 9.7 | 14.5 | 0.00 | 0.89 | 0.00 | 69 | 1010.2 |
| 20260507130312 | 12 | 270 | 3.2 | 17.7 | 0.00 | 0.89 | 0.00 | 72 | 1010.2 |
| 20260507125312 | 12 | 292 | 4.8 | 14.5 | 0.00 | 0.89 | 0.00 | 68 | 1010.2 |
| 20260507124311 | 12 | 315 | 4.8 | 17.7 | 0.00 | 0.89 | 0.00 | 65 | 1010.2 |
| 20260507123312 | 12 | 292 | 8.0 | 16.1 | 0.00 | 0.89 | 0.00 | 67 | 1010.3 |